When you browse on this site, cookies collect data to enhance your experience and personalize the content and advertising you see.
Visit our Privacy Policy to learn more. By continuing to use the site, you agree to this use of cookies and data.
  • In Slovakia
  • List of Countries
  • For 7 days
  • Water Temperature
  • Satellite Maps
  • Weather Map
  • Weather Widgets
  • user-avatar
    Login

    Hourly Weather Sevan

    Today, 23 March, Saturday

    Time Temperature Precipitation Wind Pressure Humidity
    00:00 0°C° 0 mm 1 mps 640 mmHg 60%
    01:00 0°C° 0 mm 1 mps 640 mmHg 61%
    02:00 0°C° 0 mm 1 mps 640 mmHg 63%
    03:00 -1°C° 0 mm 1 mps 640 mmHg 64%
    04:00 -1°C° 0 mm 1 mps 640 mmHg 65%
    05:00 -1°C° 0 mm 1 mps 640 mmHg 67%
    06:00 -1°C° 0 mm 1 mps 639 mmHg 69%
    07:00 -2°C° 0 mm 2 mps 639 mmHg 65%
    08:00 +1°C° 0 mm 2 mps 639 mmHg 61%
    09:00 +1°C° 0 mm 3 mps 639 mmHg 57%
    10:00 +2°C° 0 mm 3 mps 639 mmHg 55%
    11:00 +3°C° 0 mm 3 mps 639 mmHg 52%
    12:00 +3°C° 0 mm 3 mps 638 mmHg 50%
    13:00 +4°C° 0 mm 3 mps 638 mmHg 50%
    14:00 +4°C° 0 mm 3 mps 637 mmHg 50%
    15:00 +4°C° 0 mm 3 mps 637 mmHg 51%
    16:00 +4°C° 0.1 mm 3 mps 636 mmHg 54%
    17:00 +4°C° 0.1 mm 2 mps 636 mmHg 57%
    18:00 +4°C° 0.1 mm 2 mps 636 mmHg 60%
    19:00 +3°C° 0.1 mm 2 mps 636 mmHg 60%
    20:00 +3°C° 0.1 mm 2 mps 636 mmHg 61%
    21:00 +2°C° 0.1 mm 2 mps 636 mmHg 61%
    22:00 +2°C° 0.1 mm 2 mps 636 mmHg 61%
    23:00 +2°C° 0.1 mm 2 mps 636 mmHg 61%

    Tomorrow, 24 March, Sunday

    Time Temperature Precipitation Wind Pressure Humidity
    00:00 +2°C° 0.1 mm 2 mps 635 mmHg 61%
    01:00 +2°C° 0.2 mm 2 mps 635 mmHg 64%
    02:00 +2°C° 0.2 mm 2 mps 635 mmHg 67%
    03:00 +3°C° 0.2 mm 1 mps 635 mmHg 71%
    04:00 +3°C° 0.3 mm 1 mps 634 mmHg 72%
    05:00 +2°C° 0.3 mm 1 mps 634 mmHg 74%
    06:00 +2°C° 0.3 mm 1 mps 634 mmHg 75%
    07:00 +2°C° 0.2 mm 2 mps 634 mmHg 73%
    08:00 +4°C° 0.2 mm 2 mps 634 mmHg 70%
    09:00 +5°C° 0.2 mm 2 mps 634 mmHg 67%
    10:00 +5°C° 0.3 mm 2 mps 634 mmHg 66%
    11:00 +6°C° 0.3 mm 2 mps 634 mmHg 65%
    12:00 +6°C° 0.3 mm 2 mps 633 mmHg 65%
    13:00 +7°C° 0.6 mm 2 mps 633 mmHg 65%
    14:00 +7°C° 0.6 mm 2 mps 633 mmHg 66%
    15:00 +7°C° 0.6 mm 2 mps 633 mmHg 67%
    16:00 +6°C° 1.5 mm 2 mps 633 mmHg 71%
    17:00 +5°C° 1.5 mm 2 mps 633 mmHg 74%
    18:00 +3°C° 1.5 mm 3 mps 633 mmHg 78%
    19:00 +2°C° 0.9 mm 3 mps 634 mmHg 78%
    20:00 +2°C° 0.9 mm 3 mps 634 mmHg 79%
    21:00 +2°C° 0.9 mm 2 mps 635 mmHg 79%
    22:00 +2°C° 0.4 mm 2 mps 635 mmHg 79%
    23:00 +1°C° 0.4 mm 2 mps 635 mmHg 78%

    Day after tomorrow, 25 March, Monday

    Time Temperature Precipitation Wind Pressure Humidity
    00:00 +1°C° 0.4 mm 2 mps 635 mmHg 78%
    01:00 +1°C° 0.1 mm 2 mps 635 mmHg 78%
    02:00 -1°C° 0.1 mm 2 mps 635 mmHg 77%
    03:00 -1°C° 0.1 mm 2 mps 635 mmHg 77%
    04:00 -1°C° 0 mm 2 mps 635 mmHg 77%
    05:00 -2°C° 0 mm 2 mps 635 mmHg 77%
    06:00 -2°C° 0 mm 2 mps 634 mmHg 77%
    07:00 +1°C° 0 mm 2 mps 635 mmHg 74%
    08:00 +2°C° 0 mm 2 mps 635 mmHg 72%
    09:00 +4°C° 0 mm 2 mps 635 mmHg 70%
    10:00 +5°C° 0 mm 2 mps 635 mmHg 70%
    11:00 +5°C° 0 mm 2 mps 635 mmHg 69%
    12:00 +6°C° 0 mm 2 mps 634 mmHg 68%
    13:00 +7°C° 0 mm 3 mps 634 mmHg 67%
    14:00 +7°C° 0 mm 3 mps 634 mmHg 67%
    15:00 +6°C° 0 mm 4 mps 633 mmHg 66%
    16:00 +5°C° 0 mm 4 mps 633 mmHg 67%
    17:00 +4°C° 0 mm 4 mps 633 mmHg 68%
    18:00 +3°C° 0 mm 5 mps 633 mmHg 69%
    19:00 +3°C° 0.1 mm 4 mps 634 mmHg 71%
    20:00 +1°C° 0.1 mm 4 mps 634 mmHg 72%
    21:00 +1°C° 0.1 mm 4 mps 635 mmHg 74%
    22:00 +1°C° 0.1 mm 4 mps 635 mmHg 74%
    23:00 0°C° 0.1 mm 4 mps 635 mmHg 75%

    26 March, Tuesday

    Time Temperature Precipitation Wind Pressure Humidity
    00:00 +1°C° 0.1 mm 3 mps 635 mmHg 75%
    01:00 +1°C° 0.1 mm 3 mps 635 mmHg 75%
    02:00 +1°C° 0.1 mm 3 mps 635 mmHg 76%
    03:00 +2°C° 0.1 mm 2 mps 635 mmHg 76%
    04:00 +2°C° 0.1 mm 2 mps 635 mmHg 77%
    05:00 +1°C° 0.1 mm 2 mps 635 mmHg 77%
    06:00 +1°C° 0.1 mm 2 mps 635 mmHg 77%
    07:00 +2°C° 0.1 mm 2 mps 636 mmHg 73%
    08:00 +5°C° 0.1 mm 1 mps 636 mmHg 70%
    09:00 +6°C° 0.1 mm 1 mps 636 mmHg 66%
    10:00 +6°C° 0.1 mm 1 mps 636 mmHg 65%
    11:00 +7°C° 0.1 mm 1 mps 636 mmHg 64%
    12:00 +8°C° 0.1 mm 1 mps 636 mmHg 63%
    13:00 +8°C° 0.1 mm 1 mps 636 mmHg 62%
    14:00 +8°C° 0.1 mm 1 mps 636 mmHg 62%
    15:00 +8°C° 0.1 mm 1 mps 635 mmHg 61%
    16:00 +7°C° 0.1 mm 2 mps 635 mmHg 63%
    17:00 +6°C° 0.1 mm 2 mps 635 mmHg 65%
    18:00 +6°C° 0.1 mm 2 mps 635 mmHg 67%
    19:00 +5°C° 0 mm 2 mps 635 mmHg 70%
    20:00 +3°C° 0 mm 3 mps 636 mmHg 72%
    21:00 +3°C° 0 mm 3 mps 636 mmHg 74%
    22:00 +2°C° 0 mm 3 mps 636 mmHg 75%
    23:00 +3°C° 0 mm 2 mps 636 mmHg 76%

    27 March, Wednesday

    Time Temperature Precipitation Wind Pressure Humidity
    00:00 +3°C° 0 mm 2 mps 636 mmHg 76%
    01:00 +2°C° 0 mm 2 mps 636 mmHg 76%
    02:00 +3°C° 0 mm 1 mps 636 mmHg 76%
    03:00 +3°C° 0 mm 1 mps 636 mmHg 76%
    04:00 +3°C° 0 mm 1 mps 636 mmHg 76%
    05:00 +2°C° 0 mm 1 mps 637 mmHg 75%
    06:00 +2°C° 0 mm 1 mps 637 mmHg 75%
    07:00 +3°C° 0 mm 1 mps 637 mmHg 72%
    08:00 +4°C° 0 mm 2 mps 637 mmHg 68%
    09:00 +5°C° 0 mm 2 mps 638 mmHg 65%
    10:00 +5°C° 0 mm 3 mps 638 mmHg 64%
    11:00 +5°C° 0 mm 3 mps 637 mmHg 62%
    12:00 +7°C° 0 mm 3 mps 637 mmHg 61%
    13:00 +8°C° 0 mm 3 mps 637 mmHg 60%
    14:00 +8°C° 0 mm 3 mps 637 mmHg 59%
    15:00 +8°C° 0 mm 3 mps 637 mmHg 57%
    16:00 +7°C° 0.1 mm 2 mps 637 mmHg 59%
    17:00 +7°C° 0.1 mm 2 mps 637 mmHg 61%
    18:00 +6°C° 0.1 mm 2 mps 637 mmHg 63%
    19:00 +5°C° 0 mm 2 mps 638 mmHg 63%
    20:00 +6°C° 0 mm 1 mps 638 mmHg 64%
    21:00 +5°C° 0 mm 1 mps 638 mmHg 64%
    22:00 +5°C° 0.2 mm 1 mps 638 mmHg 66%
    23:00 +5°C° 0.2 mm 1 mps 638 mmHg 68%

    28 March, Thursday

    Time Temperature Precipitation Wind Pressure Humidity
    00:00 +5°C° 0.2 mm 1 mps 639 mmHg 70%
    01:00 +4°C° 0.1 mm 1 mps 638 mmHg 71%
    02:00 +4°C° 0.1 mm 1 mps 638 mmHg 72%
    03:00 +4°C° 0.1 mm 1 mps 638 mmHg 74%
    04:00 +4°C° 0.1 mm 1 mps 638 mmHg 75%
    05:00 +3°C° 0.1 mm 1 mps 638 mmHg 76%
    06:00 +3°C° 0.1 mm 1 mps 638 mmHg 77%
    07:00 +3°C° 0.1 mm 2 mps 639 mmHg 72%
    08:00 +4°C° 0.1 mm 2 mps 639 mmHg 67%
    09:00 +5°C° 0.1 mm 2 mps 640 mmHg 63%
    10:00 +6°C° 0.1 mm 2 mps 639 mmHg 62%
    11:00 +6°C° 0.1 mm 2 mps 639 mmHg 61%
    12:00 +7°C° 0.1 mm 3 mps 639 mmHg 60%
    13:00 +7°C° 0.3 mm 2 mps 639 mmHg 61%
    14:00 +7°C° 0.3 mm 2 mps 638 mmHg 62%
    15:00 +7°C° 0.3 mm 2 mps 638 mmHg 62%
    16:00 +6°C° 0.1 mm 2 mps 638 mmHg 63%
    17:00 +6°C° 0.1 mm 2 mps 638 mmHg 64%
    18:00 +6°C° 0.1 mm 1 mps 638 mmHg 65%
    19:00 +6°C° 0.1 mm 1 mps 638 mmHg 65%
    20:00 +5°C° 0.1 mm 1 mps 638 mmHg 66%
    21:00 +4°C° 0.1 mm 1 mps 638 mmHg 66%
    22:00 +4°C° 0.1 mm 1 mps 638 mmHg 66%
    23:00 +4°C° 0.1 mm 1 mps 638 mmHg 65%
    Show more